When you browse on this site, cookies collect data to enhance your experience and personalize the content and advertising you see.
Visit our Privacy Policy to learn more. By continuing to use the site, you agree to this use of cookies and data.
  • In Italy
  • List of Countries
  • For 7 days
  • Water Temperature
  • Satellite Maps
  • Weather Map
  • Weather Widgets
  • user-avatar
    Login

    Hourly Weather Balachy

    Today, 20 April, Saturday

    Time Temperature Precipitation Wind Pressure Humidity
    00:00 +6°C° 0 mm 2 mps 761 mmHg 51%
    01:00 +5°C° 0 mm 2 mps 760 mmHg 51%
    02:00 +5°C° 0 mm 2 mps 760 mmHg 54%
    03:00 +5°C° 0 mm 2 mps 760 mmHg 56%
    04:00 +4°C° 0 mm 2 mps 760 mmHg 59%
    05:00 +6°C° 0 mm 2 mps 760 mmHg 57%
    06:00 +7°C° 0 mm 2 mps 760 mmHg 55%
    07:00 +8°C° 0 mm 2 mps 760 mmHg 54%
    08:00 +10°C° 0 mm 3 mps 760 mmHg 48%
    09:00 +12°C° 0 mm 3 mps 760 mmHg 42%
    10:00 +14°C° 0 mm 3 mps 760 mmHg 36%
    11:00 +16°C° 0 mm 3 mps 760 mmHg 34%
    12:00 +17°C° 0 mm 4 mps 760 mmHg 33%
    13:00 +18°C° 0 mm 4 mps 760 mmHg 31%
    14:00 +17°C° 0 mm 4 mps 759 mmHg 32%
    15:00 +17°C° 0 mm 4 mps 759 mmHg 33%
    16:00 +15°C° 0 mm 4 mps 759 mmHg 34%
    17:00 +14°C° 0 mm 3 mps 758 mmHg 39%
    18:00 +12°C° 0 mm 3 mps 758 mmHg 44%
    19:00 +10°C° 0 mm 2 mps 758 mmHg 49%
    20:00 +10°C° 0 mm 2 mps 758 mmHg 51%
    21:00 +9°C° 0 mm 2 mps 758 mmHg 52%
    22:00 +9°C° 0 mm 1 mps 758 mmHg 54%
    23:00 +8°C° 0 mm 1 mps 758 mmHg 54%

    Tomorrow, 21 April, Sunday

    Time Temperature Precipitation Wind Pressure Humidity
    00:00 +8°C° 0 mm 1 mps 757 mmHg 54%
    01:00 +7°C° 0 mm 1 mps 757 mmHg 54%
    02:00 +7°C° 0 mm 1 mps 757 mmHg 55%
    03:00 +7°C° 0 mm 1 mps 756 mmHg 56%
    04:00 +7°C° 0 mm 1 mps 756 mmHg 56%
    05:00 +7°C° 0 mm 2 mps 756 mmHg 53%
    06:00 +8°C° 0 mm 2 mps 756 mmHg 49%
    07:00 +9°C° 0 mm 2 mps 756 mmHg 46%
    08:00 +12°C° 0 mm 2 mps 756 mmHg 43%
    09:00 +14°C° 0 mm 2 mps 756 mmHg 39%
    10:00 +16°C° 0 mm 3 mps 755 mmHg 36%
    11:00 +17°C° 0 mm 3 mps 755 mmHg 34%
    12:00 +18°C° 0 mm 3 mps 755 mmHg 33%
    13:00 +19°C° 0 mm 4 mps 754 mmHg 31%
    14:00 +18°C° 0 mm 4 mps 754 mmHg 31%
    15:00 +18°C° 0 mm 4 mps 753 mmHg 31%
    16:00 +17°C° 0 mm 4 mps 753 mmHg 32%
    17:00 +14°C° 0 mm 4 mps 753 mmHg 39%
    18:00 +12°C° 0 mm 3 mps 753 mmHg 45%
    19:00 +12°C° 0 mm 2 mps 753 mmHg 52%
    20:00 +9°C° 0 mm 2 mps 753 mmHg 59%
    21:00 +8°C° 0 mm 2 mps 753 mmHg 65%
    22:00 +7°C° 0 mm 2 mps 753 mmHg 71%
    23:00 +7°C° 0 mm 2 mps 753 mmHg 74%

    Day after tomorrow, 22 April, Monday

    Time Temperature Precipitation Wind Pressure Humidity
    00:00 +6°C° 0 mm 2 mps 753 mmHg 76%
    01:00 +6°C° 0 mm 2 mps 753 mmHg 78%
    02:00 +5°C° 0 mm 2 mps 753 mmHg 77%
    03:00 +5°C° 0 mm 2 mps 753 mmHg 75%
    04:00 +5°C° 0 mm 2 mps 753 mmHg 73%
    05:00 +6°C° 0 mm 2 mps 753 mmHg 69%
    06:00 +7°C° 0 mm 2 mps 753 mmHg 64%
    07:00 +9°C° 0 mm 3 mps 753 mmHg 59%
    08:00 +11°C° 0 mm 3 mps 753 mmHg 54%
    09:00 +13°C° 0 mm 4 mps 753 mmHg 49%
    10:00 +15°C° 0 mm 4 mps 753 mmHg 45%
    11:00 +17°C° 0 mm 4 mps 753 mmHg 43%
    12:00 +17°C° 0 mm 5 mps 753 mmHg 41%
    13:00 +19°C° 0 mm 5 mps 753 mmHg 40%
    14:00 +19°C° 0 mm 5 mps 753 mmHg 40%
    15:00 +19°C° 0 mm 5 mps 752 mmHg 41%
    16:00 +19°C° 0 mm 5 mps 752 mmHg 41%
    17:00 +17°C° 0 mm 4 mps 752 mmHg 47%
    18:00 +15°C° 0 mm 4 mps 752 mmHg 54%
    19:00 +14°C° 0 mm 3 mps 752 mmHg 60%
    20:00 +13°C° 0 mm 3 mps 752 mmHg 62%
    21:00 +12°C° 0 mm 4 mps 752 mmHg 63%
    22:00 +12°C° 0 mm 4 mps 752 mmHg 65%
    23:00 +11°C° 0 mm 4 mps 752 mmHg 63%

    23 April, Tuesday

    Time Temperature Precipitation Wind Pressure Humidity
    00:00 +11°C° 0 mm 4 mps 752 mmHg 60%
    01:00 +9°C° 0 mm 5 mps 752 mmHg 58%
    02:00 +8°C° 0 mm 5 mps 752 mmHg 59%
    03:00 +8°C° 0 mm 5 mps 752 mmHg 61%
    04:00 +7°C° 0 mm 5 mps 751 mmHg 62%
    05:00 +8°C° 0 mm 6 mps 751 mmHg 60%
    06:00 +8°C° 0 mm 6 mps 751 mmHg 57%
    07:00 +9°C° 0 mm 7 mps 751 mmHg 55%
    08:00 +10°C° 0 mm 7 mps 751 mmHg 51%
    09:00 +12°C° 0 mm 8 mps 751 mmHg 48%
    10:00 +13°C° 0 mm 8 mps 751 mmHg 45%
    11:00 +15°C° 0 mm 8 mps 750 mmHg 42%
    12:00 +16°C° 0 mm 9 mps 750 mmHg 39%
    13:00 +17°C° 0 mm 9 mps 750 mmHg 36%
    14:00 +17°C° 0 mm 9 mps 749 mmHg 37%
    15:00 +17°C° 0 mm 9 mps 749 mmHg 37%
    16:00 +17°C° 0 mm 9 mps 748 mmHg 38%
    17:00 +16°C° 0 mm 8 mps 748 mmHg 41%
    18:00 +15°C° 0 mm 7 mps 748 mmHg 44%
    19:00 +14°C° 0 mm 7 mps 748 mmHg 48%
    20:00 +12°C° 0 mm 7 mps 748 mmHg 49%
    21:00 +12°C° 0 mm 7 mps 748 mmHg 50%
    22:00 +11°C° 0 mm 7 mps 748 mmHg 51%
    23:00 +11°C° 0 mm 7 mps 748 mmHg 51%

    24 April, Wednesday

    Time Temperature Precipitation Wind Pressure Humidity
    00:00 +11°C° 0 mm 7 mps 747 mmHg 52%
    01:00 +10°C° 0 mm 7 mps 747 mmHg 53%
    02:00 +10°C° 0.1 mm 7 mps 747 mmHg 59%
    03:00 +9°C° 0.1 mm 8 mps 747 mmHg 65%
    04:00 +9°C° 0.1 mm 8 mps 746 mmHg 72%
    05:00 +9°C° 0.1 mm 8 mps 746 mmHg 69%
    06:00 +10°C° 0.1 mm 8 mps 746 mmHg 66%
    07:00 +10°C° 0.1 mm 8 mps 746 mmHg 64%
    08:00 +12°C° 0 mm 8 mps 746 mmHg 60%
    09:00 +13°C° 0 mm 8 mps 746 mmHg 56%
    10:00 +16°C° 0 mm 8 mps 746 mmHg 52%
    11:00 +17°C° 0 mm 8 mps 746 mmHg 51%
    12:00 +18°C° 0 mm 8 mps 746 mmHg 51%
    13:00 +18°C° 0 mm 8 mps 746 mmHg 50%
    14:00 +18°C° 0 mm 8 mps 746 mmHg 53%
    15:00 +18°C° 0 mm 7 mps 746 mmHg 55%
    16:00 +18°C° 0 mm 7 mps 746 mmHg 57%
    17:00 +17°C° 0 mm 6 mps 746 mmHg 61%
    18:00 +17°C° 0 mm 6 mps 746 mmHg 65%
    19:00 +16°C° 0 mm 5 mps 746 mmHg 69%
    20:00 +15°C° 0 mm 5 mps 747 mmHg 70%
    21:00 +15°C° 0 mm 5 mps 747 mmHg 72%
    22:00 +15°C° 0 mm 5 mps 747 mmHg 74%
    23:00 +14°C° 0 mm 4 mps 747 mmHg 76%

    25 April, Thursday

    Time Temperature Precipitation Wind Pressure Humidity
    00:00 +14°C° 0 mm 4 mps 747 mmHg 79%
    01:00 +14°C° 0 mm 4 mps 747 mmHg 81%
    02:00 +13°C° 0.1 mm 4 mps 748 mmHg 84%
    03:00 +13°C° 0.1 mm 4 mps 748 mmHg 87%
    04:00 +12°C° 0.1 mm 4 mps 748 mmHg 90%
    05:00 +13°C° 0.7 mm 4 mps 748 mmHg 88%
    06:00 +13°C° 0.7 mm 4 mps 748 mmHg 85%
    07:00 +14°C° 0.7 mm 4 mps 748 mmHg 83%
    08:00 +17°C° 0.3 mm 4 mps 749 mmHg 77%
    09:00 +18°C° 0.3 mm 4 mps 749 mmHg 71%
    10:00 +20°C° 0.3 mm 4 mps 749 mmHg 66%
    11:00 +21°C° 0 mm 4 mps 749 mmHg 60%
    12:00 +22°C° 0 mm 4 mps 749 mmHg 54%
    13:00 +25°C° 0 mm 3 mps 749 mmHg 49%
    14:00 +25°C° 0 mm 3 mps 748 mmHg 49%
    15:00 +25°C° 0 mm 3 mps 748 mmHg 49%
    16:00 +25°C° 0 mm 3 mps 748 mmHg 48%
    17:00 +24°C° 0 mm 3 mps 748 mmHg 54%
    18:00 +21°C° 0 mm 3 mps 748 mmHg 60%
    19:00 +20°C° 0 mm 3 mps 747 mmHg 66%
    20:00 +19°C° 0 mm 3 mps 747 mmHg 69%
    21:00 +18°C° 0 mm 3 mps 747 mmHg 73%
    22:00 +17°C° 0 mm 3 mps 747 mmHg 76%
    23:00 +17°C° 0 mm 3 mps 747 mmHg 78%
    Show more